Location: DARK SKY Beskydy - Park tmavé oblohy, www.darkskybeskydy.cz
(49.4926°N, 18.5016°E)
Time: 01:02:21
(UTC+02:00)

Vanguard 1 - Pass Details

Date: 26 February 2024
Orbit: 653 x 3825 km, 34.2° (Epoch: 22 April)

Event Time Altitude Azimuth Distance (km) Brightness Sun altitude
Rises 16:12:02 0° 167° (SSE) 4,842 13.8 10.0°
Reaches altitude 10° 16:19:48 10° 131° (SE) 4,764 13.4 8.8°
Maximum altitude 16:21:51 10° 123° (ESE) 4,948 13.4 8.5°
Drops below altitude 10° 16:24:03 10° 114° (ESE) 5,216 13.4 8.2°
Sets 16:35:34 0° 83° (E) 7,227 13.8 6.5°
